Regional Weather Roundup
Issued by NWS Upton, NY

Current Version | Previous Version | Text Only | Print | Product List | Glossary On
Versions: 1 2 3 4 5 6 7 8 9 10 11 12 13 14 15 16 17 18 19 20 21 22 23 24 25 26 27 28 29 30 31 32 33 34 35 36 37 38 39 40 41 42 43 44 45 46 47 48 49 50
000
ASUS41 KOKX 281005
RWROKX

REGIONAL WEATHER ROUNDUP
NATIONAL WEATHER SERVICE NEW YORK NY
600 AM EDT MON JUL 28 2014

NOTE: "FAIR" INDICATES FEW OR NO CLOUDS BELOW 12,000 FEET WITH NO
SIGNIFICANT WEATHER AND/OR OBSTRUCTIONS TO VISIBILITY.

NYZ071-072-176-178-NJZ106-104-281100-
NEW YORK CITY METRO AREA


CITY           SKY/WX    TMP DP  RH WIND       PRES   REMARKS
CENTRAL PARK   MOCLDY    69  66  90 CALM      29.58R
LAGUARDIA APRT CLOUDY    71  66  84 S7        29.54S
KENNEDY INTL   MOCLDY    71  67  87 SE9       29.57R
NEWARK/LIBERTY CLOUDY    70  67  90 S3        29.55R
BRNX BOT. GARD   N/A     68  66  94 S3        29.57S
TETERBORO      MOCLDY    72  66  81 S3        29.54R
$$

NYZ177-179-078>081-281100-
LONG ISLAND NEW YORK

CITY           SKY/WX    TMP DP  RH WIND       PRES   REMARKS
FARMINGDALE    CLOUDY    68  67  96 S6        29.58R
ISLIP          CLOUDY    71  67  87 SE7       29.56R
SHIRLEY        CLOUDY    69  67  93 S10       29.59R
WESTHAMPTON    LGT RAIN  68  66  93 S8        29.60S
MONTAUK POINT    N/A     73  71  93 VRB6      29.62S
$$

NYZ052-065-067-281100-
HUDSON VALLEY

CITY           SKY/WX    TMP DP  RH WIND       PRES   REMARKS
WHITE PLAINS   CLOUDY    68  66  93 SE5       29.55R
NEWBURGH       MOCLDY    70  66  88 CALM      29.56S
MONTGOMERY     CLOUDY    68  66  93 CALM      29.53F
POUGHKEEPSIE   CLOUDY    69  67  93 CALM      29.53S
ALBANY         HVY RAIN  66  63  90 N3        29.57R FOG
$$

NJZ001-105-106-008-010-013-015-019>022-104-281100-
NEW JERSEY

CITY           SKY/WX    TMP DP  RH WIND       PRES   REMARKS
NEWARK/LIBERTY CLOUDY    70  67  90 S3        29.55R
TETERBORO      MOCLDY    72  66  81 S3        29.54R
CALDWELL       MOCLDY    69  66  90 CALM      29.55R
MORRISTOWN     CLOUDY    70  66  88 CALM      29.56R
SOMERVILLE     MOCLDY    68  66  93 CALM      29.54R
LINDEN         FAIR      70  67  90 CALM      29.57R
SUSSEX         CLOUDY    70  67  90 CALM      29.54F
ANDOVER          N/A     68  67  96 SW5       29.57R
TRENTON        MOCLDY    67  65  93 S5        29.55R
MILLVILLE      PTCLDY    69  68  96 CALM      29.56F
ATLANTIC CITY  PTCLDY    70  68  93 SE5       29.56F
WRIGHTSTOWN    PTCLDY    67  66  98 S3        29.54S
TOMS RIVER     PTCLDY    66  66 100 CALM      29.57S
BELMAR         PTCLDY    66  63  88 S5        29.56S
$$

PAZ047>061-062-071-281100-
EASTERN PENNSYLVANIA

CITY           SKY/WX    TMP DP  RH WIND       PRES   REMARKS
PHILADELPHIA   MOCLDY    70  66  87 S6        29.56S
ALLENTOWN      CLOUDY    68  65  90 W6        29.56S
SCRANTON       CLOUDY    65  62  90 CALM      29.54F
$$

CTZ002-004>006-009-010-012-RIZ004-006-007-MAZ004-011-015-281100-
SOUTHERN NEW ENGLAND
 IN CT

CITY           SKY/WX    TMP DP  RH WIND       PRES   REMARKS
BRADLEY INTL   CLOUDY    71  68  90 SE10      29.54F FOG
HARTFORD       LGT RAIN  73  70  90 S8        29.55F
DANBURY        LGT RAIN  72  68  87 S6        29.57R
WTRBRY/OXFORD  MOCLDY    70  66  88 S7        29.59S FOG
BRIDGEPORT     LGT RAIN  71  68  90 S10       29.56S
MERIDEN        RAIN      73  71  93 S5        29.55F FOG
NEW HAVEN      LGT RAIN  74  70  87 S8        29.56S
CHESTER        RAIN      72  72 100 SE8       29.58F
GROTON         RAIN      70  70 100 S12       29.60S FOG
WILLIMANTIC    LGT RAIN  71  70  96 S7        29.59F FOG

 IN RI

CITY           SKY/WX    TMP DP  RH WIND       PRES   REMARKS
PROVIDENCE     CLOUDY    72  71  97 S9        29.62S FOG
BLOCK ISLAND   CLOUDY    72  70  94 S10       29.63R
WESTERLY       LGT RAIN  72  70  93 S9        29.63R FOG

 IN MA

CITY           SKY/WX    TMP DP  RH WIND       PRES   REMARKS
BOSTON         CLOUDY    69  68  96 SE5       29.62F FOG
WORCESTER      FOG       66  66 100 SE5       29.63F VSB<1/4
WESTFIELD      TSTM      68  66  93 SE6       29.55F FOG
PROVINCETOWN   CLOUDY    70  68  94 CALM      29.66R
NANTUCKET      FOG       68  67  96 SE9       29.66F VSB 1/2
$$

ANZ330-335-338-340-345-350-353-355-281100-
COASTAL MARINE OBSERVATIONS


STATION/POSITION TIME  SKY/WX   TEMP    WIND        PRES    VSBY  WAVE
                                AIR SEA DIR/SP/G                  HT/PER
                 (UTC)          (F)     (DEG/KT/KT) (MB)    (MI)  (FT/S)
NY HARB ENTRANCE NOT AVBL
4S FIRE IS       NOT AVBL
23SW MTP         1000            72 71              1002.0          4/ 6
HUDSON CANYON    1000            74 74  280/  8/ 12 1002.9          4/ 5
EXECUTION ROCKS  1000            71 71  200/  8/ 10   N/A
WESTERN LI SOUND 1000            71     200/  8/ 12   N/A           1
CENTRAL LI SOUND 1000            72 72  170/ 10/ 12   N/A           1/ 3
EASTERN LI SOUND 0900            70 67  180/  8/ 10   N/A
ROBBINS REEF     1000            71     170/  7/  8   N/A
$$


>>>>>>>>>>>>>>>>>>>>>>>>>>>> KEY <<<<<<<<<<<<<<<<<<<<<<<<<<<
>                                                          <
>     SKY/WX - SKY CONDITION/PRESENT WEATHER               <
>     TMP    - TEMPERATURE IN FAHRENHEIT                   <
>     DP     - DEWPOINT IN FAHRENHEIT                      <
>     RH     - RELATIVE HUMIDITY IN PERCENT                <
>     WIND   - DIRECTION AND SPEED IN MPH                  <
>     PRES   - MEAN SEA LEVEL PRESSURE IN INCHES OF HG     <
>     WCI    - WIND CHILL INDEX                            <
>     VSB    - VISIBILITY IN MILES                         <
>     HX     - HEAT INDEX                                  <
>     TC     - TEMPERATURE IN CELSIUS                      <
>     VRB    - VARIABLE WIND DIRECTION                     <
>                                                          <
>>>>>>>>>>>>>>>>>>>>>>>>>>>> KEY <<<<<<<<<<<<<<<<<<<<<<<<<<<





USA.gov is the U.S. government's official web portal to all federal, state and local government web resources and services.